Weather History for Wasilla, AK

Change the Weather History Date:

Wednesday, November 6, 2013

  Actual Average Record
Temperature  
Mean Temperature 24 °F -  
Max Temperature 30 °F 31 °F 51 °F (2002)
Min Temperature 17 °F 18 °F -11 °F (2004)
Degree Days  
Heating Degree Days 42    
Moisture  
Dew Point 14 °F    
Average Humidity 67    
Maximum Humidity 86    
Minimum Humidity 47    
Precipitation  
Precipitation 0.00 in - - ()
Sea Level Pressure  
Sea Level Pressure 29.98 in    
Wind  
Wind Speed 1 mph (WSW)    
Max Wind Speed 6 mph    
Max Gust Speed -    
Visibility 10 miles    
Events      
Averages and records for this station are not official NWS values.
T = Trace of Precipitation, MM = Missing Value Source: NWS Daily Summary

Daily Weather History Graph

Daily Weather History Graph

Search for Another Location

Airport:

Trip Planner

Search our weather history database for the weather conditions in past years. The results will help you decide how hot, cold, wet, or windy it might be!

Date:

Astronomy

Nov. 06, 2013 Rise Set
Actual Time 8:42 AM AKST 4:39 PM AKST
Civil Twilight 7:53 AM AKST 5:29 PM AKST
Nautical Twilight 7:00 AM AKST 6:22 PM AKST
Astronomical Twilight 6:09 AM AKST 7:13 PM AKST
Moon 12:34 PM AKST (11/6) 7:29 PM AKST (11/6)
Length of Visible Light 9h 36m
Length of Day
7h 56m
Waxing Crescent, 15% of the Moon is Illuminated
Nov 6
Waxing Crescent
Nov 9
First Quarter
Nov 17
Full
Nov 25
Last Quarter
Dec 2
New

Hourly Weather History & Observations

Time (AKST) Temp. Windchill Dew Point Humidity Pressure Visibility Wind Dir Wind Speed Gust Speed Precip Events Conditions
12:16 AM 26.6 °F - 19.4 °F 74% 29.95 in 10.0 mi Calm Calm - N/A   Clear
12:36 AM 26.6 °F - 17.6 °F 69% 29.94 in 10.0 mi Calm Calm - N/A   Clear
12:56 AM 26.6 °F - 17.6 °F 69% 29.94 in 10.0 mi Calm Calm - N/A   Clear
1:16 AM 24.8 °F - 17.6 °F 74% 29.95 in 10.0 mi Calm Calm - N/A   Clear
1:36 AM 26.6 °F - 17.6 °F 69% 29.96 in 10.0 mi Calm Calm - N/A   Clear
1:56 AM 24.8 °F - 15.8 °F 69% 29.96 in 10.0 mi Calm Calm - N/A   Clear
2:16 AM 24.8 °F - 15.8 °F 69% 29.97 in 10.0 mi Calm Calm - N/A   Clear
2:36 AM 24.8 °F - 15.8 °F 69% 29.97 in 10.0 mi Calm Calm - N/A   Clear
2:56 AM 24.8 °F - 15.8 °F 69% 29.98 in 10.0 mi Calm Calm - N/A   Clear
3:16 AM 24.8 °F 20.5 °F 15.8 °F 69% 29.99 in 10.0 mi WSW 3.5 mph - N/A   Clear
3:36 AM 23.0 °F - 14.0 °F 68% 30.00 in 10.0 mi Calm Calm - N/A   Clear
3:56 AM 24.8 °F - 14.0 °F 64% 30.01 in 10.0 mi Calm Calm - N/A   Clear
4:16 AM 23.0 °F 18.4 °F 15.8 °F 74% 30.01 in 10.0 mi West 3.5 mph - N/A   Clear
4:36 AM 24.8 °F 20.5 °F 14.0 °F 64% 30.01 in 10.0 mi WSW 3.5 mph - N/A   Clear
4:56 AM 21.2 °F 16.4 °F 14.0 °F 74% 30.01 in 10.0 mi SSW 3.5 mph - N/A   Clear
5:16 AM 24.8 °F 20.5 °F 12.2 °F 59% 30.01 in 10.0 mi SW 3.5 mph - N/A   Clear
5:36 AM 23.0 °F - 14.0 °F 68% 30.01 in 10.0 mi Calm Calm - N/A   Clear
5:56 AM 21.2 °F - 14.0 °F 74% 30.02 in 10.0 mi Calm Calm - N/A   Clear
6:16 AM 19.4 °F - 12.2 °F 74% 30.01 in 10.0 mi Calm Calm - N/A   Clear
6:36 AM 21.2 °F - 14.0 °F 74% 30.02 in 10.0 mi Calm Calm - N/A   Clear
6:56 AM 19.4 °F - 14.0 °F 80% 30.01 in 10.0 mi Calm Calm - N/A   Clear
7:16 AM 19.4 °F - 12.2 °F 74% 30.01 in 10.0 mi Calm Calm - N/A   Clear
7:36 AM 19.4 °F - 14.0 °F 80% 30.02 in 10.0 mi Calm Calm - N/A   Clear
7:56 AM 19.4 °F - 12.2 °F 74% 30.02 in 10.0 mi Calm Calm - N/A   Clear
8:16 AM 17.6 °F 12.3 °F 12.2 °F 79% 30.03 in 10.0 mi West 3.5 mph - N/A   Clear
8:36 AM 17.6 °F - 12.2 °F 79% 30.03 in 10.0 mi Calm Calm - N/A   Clear
8:56 AM 19.4 °F - 12.2 °F 74% 30.02 in 10.0 mi Calm Calm - N/A   Clear
9:16 AM 17.6 °F - 12.2 °F 79% 30.02 in 10.0 mi Calm Calm - N/A   Clear
9:36 AM 19.4 °F 14.3 °F 15.8 °F 86% 30.02 in 10.0 mi WNW 3.5 mph - N/A   Clear
9:56 AM 19.4 °F - 14.0 °F 80% 30.03 in 10.0 mi Calm Calm - N/A   Clear
10:16 AM 21.2 °F - 14.0 °F 74% 30.03 in 10.0 mi Calm Calm - N/A   Clear
10:36 AM 21.2 °F - 15.8 °F 80% 30.03 in 10.0 mi Calm Calm - N/A   Clear
10:56 AM 23.0 °F - 15.8 °F 74% 30.03 in 10.0 mi Calm Calm - N/A   Clear
11:16 AM 23.0 °F 18.4 °F 14.0 °F 68% 30.03 in 10.0 mi WSW 3.5 mph - N/A   Clear
11:36 AM 24.8 °F - 15.8 °F 69% 30.03 in 10.0 mi Calm Calm - N/A   Clear
11:56 AM 26.6 °F 22.6 °F 15.8 °F 64% 30.02 in 10.0 mi West 3.5 mph - N/A   Clear
12:16 PM 28.4 °F 24.6 °F 15.8 °F 59% 30.03 in 10.0 mi West 3.5 mph - N/A   Clear
12:36 PM 28.4 °F 24.6 °F 15.8 °F 59% 30.02 in 10.0 mi West 3.5 mph - N/A   Clear
12:56 PM 30.2 °F - 15.8 °F 55% 30.02 in 10.0 mi Calm Calm - N/A   Clear
1:16 PM 30.2 °F - 14.0 °F 51% 30.01 in 10.0 mi Calm Calm - N/A   Clear
1:36 PM 30.2 °F - 14.0 °F 51% 30.02 in 10.0 mi Calm Calm - N/A   Clear
1:56 PM 30.2 °F - 14.0 °F 51% 30.01 in 10.0 mi Calm Calm - N/A   Clear
2:16 PM 30.2 °F 26.7 °F 14.0 °F 51% 30.01 in 10.0 mi West 3.5 mph - N/A   Clear
2:36 PM 30.2 °F 24.3 °F 14.0 °F 51% 30.01 in 10.0 mi SW 5.8 mph - N/A   Clear
2:56 PM 30.2 °F 26.7 °F 12.2 °F 47% 30.02 in 10.0 mi SW 3.5 mph - N/A   Clear
3:16 PM 30.2 °F 25.4 °F 12.2 °F 47% 30.01 in 10.0 mi West 4.6 mph - N/A   Clear
3:36 PM 28.4 °F - 12.2 °F 51% 30.01 in 10.0 mi Calm Calm - N/A   Clear
3:56 PM 28.4 °F - 12.2 °F 51% 30.01 in 10.0 mi Calm Calm - N/A   Clear
4:16 PM 26.6 °F - 12.2 °F 55% 30.00 in 10.0 mi Calm Calm - N/A   Clear
4:36 PM 26.6 °F - 12.2 °F 55% 29.99 in 10.0 mi Calm Calm - N/A   Clear
4:56 PM 26.6 °F 22.6 °F 12.2 °F 55% 29.99 in 10.0 mi East 3.5 mph - N/A   Clear
5:16 PM 24.8 °F 20.5 °F 12.2 °F 59% 29.98 in 10.0 mi East 3.5 mph - N/A   Clear
5:36 PM 24.8 °F - 12.2 °F 59% 29.97 in 10.0 mi Calm Calm - N/A   Clear
5:56 PM 21.2 °F - 12.2 °F 68% 29.97 in 10.0 mi Calm Calm - N/A   Clear
6:16 PM 21.2 °F - 12.2 °F 68% 29.96 in 10.0 mi Calm Calm - N/A   Clear
6:36 PM 21.2 °F - 12.2 °F 68% 29.95 in 10.0 mi Calm Calm - N/A   Clear
6:56 PM 21.2 °F - 12.2 °F 68% 29.94 in 10.0 mi Calm Calm - N/A   Clear
7:16 PM 21.2 °F - 12.2 °F 68% 29.94 in 10.0 mi Calm Calm - N/A   Clear
7:36 PM 21.2 °F - 12.2 °F 68% 29.94 in 10.0 mi Calm Calm - N/A   Clear
7:56 PM 21.2 °F - 12.2 °F 68% 29.94 in 10.0 mi Calm Calm - N/A   Clear
8:16 PM 21.2 °F - 12.2 °F 68% 29.94 in 10.0 mi Calm Calm - N/A   Clear
8:36 PM 19.4 °F - 12.2 °F 74% 29.93 in 10.0 mi Calm Calm - N/A   Clear
8:56 PM 17.6 °F - 12.2 °F 79% 29.93 in 10.0 mi Calm Calm - N/A   Clear
9:16 PM 17.6 °F - 12.2 °F 79% 29.93 in 10.0 mi Calm Calm - N/A   Clear
9:36 PM 19.4 °F - 12.2 °F 74% 29.92 in 10.0 mi Calm Calm - N/A   Clear
9:56 PM 17.6 °F - 10.4 °F 73% 29.92 in 10.0 mi Calm Calm - N/A   Clear
10:16 PM 17.6 °F - 12.2 °F 79% 29.92 in 10.0 mi Calm Calm - N/A   Clear
10:36 PM 17.6 °F - 10.4 °F 73% 29.92 in 10.0 mi Calm Calm - N/A   Clear
10:56 PM 17.6 °F - 12.2 °F 79% 29.92 in 10.0 mi Calm Calm - N/A   Clear
11:16 PM 21.2 °F 14.9 °F 12.2 °F 68% 29.91 in 10.0 mi East 4.6 mph - N/A   Clear
11:36 PM 24.8 °F 20.5 °F 12.2 °F 59% 29.91 in 10.0 mi ENE 3.5 mph - N/A   Clear
11:56 PM 24.8 °F 20.5 °F 12.2 °F 59% 29.91 in 10.0 mi ENE 3.5 mph - N/A   Clear